EW7770 Weather Reports


time (UTC)temp
C
wind
direction
speed
KPH
gust
KPH
rain 1hr
cm
rain 24hr
cm
rain mn
cm
humidity
%
barometer
mb
20260508111526 6 323 6.4 8.0 0.00 0.00 0.00 63 1006.7
20260508110525 5 326 3.2 4.8 0.00 0.00 0.00 64 1006.8
20260508105524 5 315 1.6 3.2 0.00 0.00 0.00 64 1006.6
20260508103524 4 295 1.6 3.2 0.00 0.00 0.00 65 1006.5
20260508102525 4 298 1.6 1.6 0.00 0.00 0.00 65 1006.1
20260508100626 3 337 3.2 3.2 0.00 0.00 0.00 65 1005.7
20260508095624 3 332 1.6 4.8 0.00 0.00 0.00 65 1005.6
20260508094624 3 315 1.6 3.2 0.00 0.00 0.00 65 1005.4
20260508093624 3 315 3.2 4.8 0.00 0.03 0.00 65 1005.4
20260508092626 3 315 1.6 3.2 0.00 0.03 0.00 65 1005.2
20260508091626 3 315 3.2 4.8 0.00 0.03 0.00 65 1005.1
20260508085625 3 337 3.2 6.4 0.00 0.03 0.00 64 1005.0
20260508083624 4 337 4.8 6.4 0.00 0.03 0.00 64 1005.1
20260508082625 4 337 3.2 6.4 0.00 0.03 0.00 64 1005.1
20260508081625 3 337 1.6 3.2 0.00 0.03 0.00 64 1005.2
20260508075625 4 337 0.0 1.6 0.00 0.03 0.00 63 1004.9
20260508074725 4 323 3.2 4.8 0.00 0.03 0.00 63 1004.9
20260508073725 4 337 0.0 0.0 0.00 0.03 0.00 63 1004.9
20260508072824 4 323 4.8 6.4 0.00 0.03 0.00 63 1004.7
20260508072725 4 315 1.6 4.8 0.00 0.03 0.00 62 1004.7
20260508071726 5 337 1.6 3.2 0.00 0.03 0.00 62 1004.7
20260508070726 5 315 1.6 3.2 0.00 0.03 0.00 62 1004.7
20260508065726 5 323 3.2 9.7 0.00 0.03 0.00 62 1004.9
20260508064724 5 312 3.2 6.4 0.00 0.03 0.00 61 1004.8
20260508063724 5 322 3.2 4.8 0.00 0.03 0.00 61 1004.9
20260508062725 5 333 1.6 4.8 0.00 0.03 0.00 61 1005.0
20260508061824 5 315 3.2 6.4 0.00 0.03 0.00 61 1005.1
20260508060825 5 315 3.2 6.4 0.00 0.05 0.00 60 1005.2
20260508055824 5 333 1.6 4.8 0.00 0.18 0.00 60 1005.2
20260508054825 5 324 3.2 6.4 0.00 0.38 0.00 59 1005.2
20260508053824 5 333 3.2 6.4 0.00 0.48 0.00 59 1005.3
20260508052827 5 323 1.6 3.2 0.00 0.48 0.00 59 1005.2
20260508051923 5 330 4.8 8.0 0.00 0.51 0.00 59 1005.3
20260508050926 5 315 3.2 4.8 0.00 0.51 0.00 59 1005.5
20260508045925 5 334 4.8 9.7 0.00 0.51 0.00 59 1005.6
20260508044924 5 337 4.8 6.4 0.00 0.51 0.00 59 1005.6
20260508041924 6 328 3.2 6.4 0.00 0.51 0.00 57 1005.8
20260508040927 6 329 4.8 8.0 0.00 0.51 0.00 58 1005.6
20260508035944 6 327 6.4 8.0 0.00 0.51 0.51 57 1005.8
20260508034948 6 339 4.8 8.0 0.00 0.51 0.51 56 1005.9
20260508033946 6 337 4.8 8.0 0.00 0.51 0.51 56 1006.0
20260508031946 6 335 4.8 8.0 0.00 0.51 0.51 56 1006.1
20260508030947 6 324 4.8 6.4 0.00 0.53 0.51 56 1006.1
20260508025946 7 334 4.8 6.4 0.00 0.53 0.51 54 1005.9
20260508023946 7 337 6.4 8.0 0.00 0.56 0.51 55 1005.8
20260508022944 7 330 6.4 9.7 0.00 0.58 0.51 54 1005.7
20260508021945 7 342 4.8 6.4 0.00 0.61 0.51 55 1005.9
20260508021846 7 326 4.8 6.4 0.00 0.61 0.51 55 1005.9
20260508020846 7 339 6.4 9.7 0.00 0.64 0.51 55 1006.0
20260508015944 7 321 3.2 6.4 0.00 0.69 0.51 55 1006.0
20260508014946 8 319 6.4 9.7 0.00 0.71 0.51 53 1006.2
20260508013944 8 330 6.4 8.0 0.00 0.76 0.51 53 1006.2
20260508012947 8 330 4.8 6.4 0.00 0.86 0.51 53 1006.2
20260508011946 8 324 8.0 14.5 0.00 0.99 0.51 54 1006.1
20260508010946 8 323 6.4 9.7 0.00 1.07 0.51 52 1006.1
20260508005945 9 323 6.4 9.7 0.00 1.12 0.51 53 1005.9
20260508004946 9 338 9.7 11.3 0.00 1.19 0.51 53 1006.0
20260508004045 9 338 9.7 22.5 0.00 1.30 0.51 53 1005.8
20260508000244 10 329 9.7 14.5 0.00 1.65 0.51 58 1005.1
20260507235245 10 337 6.4 8.0 0.00 1.68 0.51 61 1004.9
20260507234246 10 328 4.8 8.0 0.00 1.75 0.51 58 1004.6
20260507233246 10 270 0.0 1.6 0.00 1.83 0.51 58 1004.4
20260507233146 10 270 1.6 1.6 0.00 1.83 0.51 59 1004.4
20260507232147 11 225 0.0 0.0 0.00 1.88 0.51 60 1004.3
20260507231244 11 270 0.0 1.6 0.00 1.91 0.51 61 1004.1
20260507225347 11 202 0.0 0.0 0.00 1.98 0.51 61 1003.8
20260507225246 11 202 0.0 0.0 0.00 1.98 0.51 61 1003.8
20260507224245 11 202 0.0 1.6 0.00 1.98 0.51 61 1003.7
20260507222245 12 202 0.0 3.2 0.00 2.03 0.51 60 1003.5
20260507221246 12 225 1.6 3.2 0.00 2.06 0.51 60 1003.5
20260507215245 13 230 1.6 4.8 0.00 2.13 0.51 59 1003.7
20260507214306 13 242 3.2 4.8 0.00 2.16 0.51 59 1003.7
20260507212345 13 227 4.8 12.9 0.00 2.18 0.51 58 1003.7
20260507211345 13 224 6.4 12.9 0.00 2.18 0.51 59 1003.5
20260507210345 13 206 1.6 4.8 0.00 2.21 0.51 58 1003.5
20260507205346 13 200 4.8 9.7 0.00 2.21 0.51 58 1003.5
20260507203346 14 232 1.6 6.4 0.00 2.21 0.51 57 1003.4
20260507202345 15 244 1.6 6.4 0.00 2.21 0.51 56 1003.2
20260507201444 15 249 4.8 9.7 0.00 2.21 0.51 54 1003.2
20260507200444 17 234 4.8 12.9 0.00 2.21 0.51 53 1003.1
20260507195445 17 279 3.2 6.4 0.00 2.21 0.51 53 1003.1
20260507194446 16 252 0.0 1.6 0.00 2.21 0.51 52 1003.1
20260507193447 16 321 3.2 6.4 0.00 2.21 0.51 53 1003.2
20260507192445 16 265 1.6 4.8 0.00 2.21 0.51 53 1003.3
20260507191447 16 255 3.2 8.0 0.00 2.21 0.51 52 1003.2
20260507190447 16 304 3.2 4.8 0.00 2.21 0.51 53 1003.3
20260507185445 16 310 0.0 4.8 0.00 2.21 0.51 53 1003.4
20260507184444 16 220 0.0 4.8 0.00 2.21 0.51 52 1003.5
20260507183446 16 331 1.6 3.2 0.00 2.21 0.51 52 1003.6
20260507182445 16 272 1.6 3.2 0.00 2.21 0.51 50 1003.6
20260507181445 16 321 4.8 8.0 0.00 2.21 0.51 49 1003.7
20260507175446 16 255 0.0 3.2 0.00 2.21 0.51 52 1003.8
20260507174544 16 317 4.8 6.4 0.00 2.21 0.51 52 1003.9
20260507173547 16 269 1.6 4.8 0.00 2.21 0.51 51 1003.8
20260507171645 16 295 0.0 3.2 0.00 2.21 0.51 51 1003.8
20260507170644 16 329 1.6 4.8 0.00 2.21 0.51 51 1003.8
20260507165645 16 338 3.2 4.8 0.00 2.21 0.51 52 1004.1
20260507163649 16 247 0.0 3.2 0.00 2.21 0.51 52 1004.2
20260507161644 15 307 1.6 3.2 0.00 2.21 0.51 53 1004.4
20260507160645 15 52 4.8 8.0 0.00 2.21 0.51 55 1004.6
20260507155646 14 28 3.2 6.4 0.00 2.21 0.51 56 1004.6
20260507154645 14 319 3.2 8.0 0.00 2.21 0.51 56 1004.7
20260507153645 13 337 4.8 6.4 0.00 2.21 0.51 56 1005.1
20260507152646 13 308 4.8 6.4 0.00 2.21 0.51 57 1005.0
20260507151645 13 12 4.8 6.4 0.00 2.21 0.51 58 1005.2
20260507150644 12 358 6.4 11.3 0.00 2.21 0.51 58 1005.3
20260507145647 13 11 9.7 12.9 0.00 2.21 0.51 57 1005.3
20260507144647 12 334 4.8 9.7 0.00 2.21 0.51 58 1005.4
20260507142745 12 3 3.2 4.8 0.00 2.21 0.51 59 1005.7
20260507141844 12 308 1.6 1.6 0.00 2.21 0.51 60 1005.6
20260507135945 12 293 4.8 4.8 0.00 2.21 0.51 59 1005.8
20260507135845 12 318 3.2 6.4 0.00 2.21 0.51 59 1005.7
20260507133943 11 343 3.2 6.4 0.00 2.21 0.51 56 1006.2
20260507132947 10 14 1.6 8.0 0.00 2.21 0.51 54 1006.0
20260507132044 10 345 6.4 8.0 0.00 2.21 0.51 53 1005.8
20260507131045 10 331 3.2 6.4 0.00 2.21 0.51 51 1006.0
20260507130945 9 333 6.4 9.7 0.00 2.21 0.51 52 1005.9
20260507125946 9 330 6.4 9.7 0.00 2.21 0.51 50 1005.9
20260507125044 9 334 8.0 11.3 0.00 2.21 0.51 48 1005.8
20260507121046 7 346 4.8 6.4 0.00 2.21 0.51 42 1005.7
20260507120045 7 313 4.8 6.4 0.00 2.21 0.51 39 1005.6
20260507115046 7 337 4.8 6.4 0.00 2.21 0.51 39 1006.1
20260507114044 7 337 3.2 4.8 0.00 2.21 0.51 37 1005.9
20260507113044 6 322 4.8 4.8 0.00 2.21 0.51 37 1006.2
20260507112047 6 337 4.8 6.4 0.00 2.21 0.51 37 1006.1